This demonstration page uses our WeatherBlox Daily Observations layout. Learn more.

Left ArrowRight Arrow

38.20091, -84.87328

Hourly Observations for September 21, 2021

Temp ( °F °C ) Dew Point ( °F °C ) Humidity (%) Winds ( mph kmh ) Pressure ( in mb ) Visibility ( mi km ) Precip ( " mm )
12:53 am 00:53 Mostly Cloudy 67 19.4 66 18.9 97 97 Calm 30.03 1017 8 13 0.00 0.00
1:53 am 01:53 Cloudy 67 19.4 66 18.9 97 97 Calm 30.03 1017 9 14 0.00 0.00
2:53 am 02:53 Cloudy 68 20 67 19.4 96 96 Calm 30.03 1017 10 16 0.00 0.00
3:53 am 03:53 Cloudy with Rain 69 20.6 67 19.4 93 93 Calm 30.04 1017 4 6 0.03 0.76
4:53 am 04:53 Cloudy 68 20 67 19.4 96 96 ESE 6 9 30.04 1017 9 14 0.01 0.25
5:53 am 05:53 Cloudy 68 20 67 19.4 96 96 ESE 5 7 30.03 1017 10 16 0.00 0.00
6:53 am 06:53 Cloudy 68 20 67 19.4 96 96 Calm 30.05 1018 10 16 0.00 0.00
7:53 am 07:53 Cloudy with Light Rain 68 20 67 19.4 96 96 ESE 5 7 30.07 1018 4 6 0.02 0.51
8:05 am 08:05 Cloudy with Light Rain 68 20 67 19.4 96 96 ESE 5 7 30.07 1018 3 4 0.01 0.25
8:33 am 08:33 Cloudy with Light Rain 68 20 67 19.4 96 96 ESE 5 7 30.07 1018 3 5 0.04 1.02
8:53 am 08:53 Cloudy with Mist and Fog 69 20.6 67 19.4 93 93 ESE 5 7 30.07 1018 6 10 0.04 1.02
9:34 am 09:34 Cloudy 69 20.6 68 20 96 96 SE 7 11 30.07 1018 9 14 0.00 0.00
9:41 am 09:41 Cloudy 69 20.6 68 20 96 96 SSE 7 11 30.07 1018 9 14 0.00 0.00
9:53 am 09:53 Cloudy 69 20.6 68 20 96 96 SE 5 7 30.08 1019 7 11 0.00 0.00
10:53 am 10:53 Cloudy 71 21.7 68 20 90 90 SSE 8 13 30.09 1019 10 16 0.00 0.00
11:04 am 11:04 Cloudy 71 21.7 68 20 90 90 SSE 8 13 30.09 1019 10 16 0.00 0.00
11:33 am 11:33 Cloudy 71 21.7 68 20 90 90 SSE 8 13 30.09 1019 8 13 0.00 0.00
11:53 am 11:53 Cloudy 72 22.2 68 20 87 87 SE 7 11 30.09 1019 10 16 0.00 0.00
12:06 pm 12:06 Cloudy 72 22.2 69 20.6 91 91 S 10 17 30.07 1018 10 16 0.00 0.00
12:34 pm 12:34 Cloudy 73 22.8 69 20.6 87 87 SSE 8 13 30.07 1018 10 16 0.00 0.00
12:53 pm 12:53 Cloudy 73 22.8 69 20.6 87 87 S 6 9 30.08 1019 10 16 0.00 0.00
1:53 pm 13:53 Cloudy 73 22.8 69 20.6 87 87 S 8 13 30.06 1018 7 11 0.00 0.00
2:38 pm 14:38 Cloudy 74 23.3 71 21.7 91 91 SSE 7 11 30.03 1017 10 16 0.00 0.00
2:48 pm 14:48 Cloudy 73 23 70 21 89 89 SSE 8 13 30.02 1017 10 16 0.00 0.00
2:53 pm 14:53 Cloudy 74 23.3 69 20.6 85 85 SSE 8 13 30.03 1017 10 16 0.00 0.00
3:53 pm 15:53 Cloudy 75 23.9 69 20.6 82 82 S 7 11 30.01 1016 10 16 0.00 0.00
4:23 pm 16:23 Cloudy 75 23.9 70 21.1 84 84 SSE 8 13 29.99 1016 10 16 0.00 0.00
4:53 pm 16:53 Cloudy 75 23.9 70 21.1 84 84 SSE 5 7 30.00 1016 10 16 0.00 0.00
5:53 pm 17:53 Cloudy 75 23.9 70 21.1 84 84 SW 3 6 29.99 1016 10 16 0.00 0.00
6:53 pm 18:53 Cloudy 75 23.9 70 21.1 84 84 Calm 29.98 1015 10 16 0.00 0.00
7:05 pm 19:05 Cloudy 75 23.9 71 21.7 88 88 Calm 29.98 1015 10 16 0.00 0.00
7:53 pm 19:53 Mostly Cloudy 73 22.8 70 21.1 90 90 Calm 29.98 1015 10 16 0.00 0.00
8:11 pm 20:11 Cloudy 73 22.8 70 21.1 90 90 Calm 29.98 1015 10 16 0.00 0.00
8:21 pm 20:21 Cloudy 73 22.8 70 21.1 90 90 Calm 29.98 1015 10 16 0.00 0.00
8:53 pm 20:53 Cloudy 72 22.2 71 21.7 97 97 Calm 29.98 1015 10 16 0.00 0.00
9:53 pm 21:53 Cloudy 73 22.8 71 21.7 94 94 SE 5 7 29.98 1015 10 16 0.00 0.00
10:53 pm 22:53 Cloudy 73 22.8 70 21.1 90 90 E 3 6 29.96 1015 10 16 0.00 0.00
11:53 pm 23:53 Cloudy 72 22.2 70 21.1 94 94 SSE 5 7 29.96 1015 10 16 0.00 0.00

Powered by AerisWeather